Total_Precipitation_Accumulation
1.09 1.05 0.97 0.97 0.89 1.00 1.16 1.26 1.23 1.16 1.17 1.14 1.05 1.17 1.25 1.34 1.40 1.47 1.65 1.88 2.18 2.68 3.02 2.95 2.62 2.30 2.17 2.13 2.17 2.17 2.19 2.33 2.33 2.34 2.38 2.31 2.24 2.14 2.12 2.13 2.04 1.97 2.02
1.06 1.05 1.03 1.05 1.02 1.06 1.20 1.23 1.15 1.20 1.30 1.23 1.09 1.13 1.23 1.29 1.37 1.38 1.46 1.67 1.90 2.17 2.78 3.14 3.01 2.76 2.71 2.51 2.57 2.52 2.41 2.22 2.16 2.26 2.25 2.24 2.27 2.13 2.04 1.97 1.92 1.84 1.83
0.92 0.98 1.00 1.01 1.06 1.17 1.24 1.31 1.15 1.19 1.20 1.14 1.15 1.15 1.14 1.18 1.20 1.23 1.22 1.32 1.48 1.77 2.29 2.79 3.08 3.13 3.18 3.06 2.92 2.71 2.43 2.19 2.13 2.17 2.18 2.09 2.16 2.10 1.98 2.00 1.89 1.88 1.83
0.86 1.01 1.04 1.02 1.04 1.20 1.33 1.42 1.35 1.34 1.31 1.27 1.27 1.25 1.17 1.21 1.12 1.13 1.17 1.19 1.38 1.39 1.75 2.20 2.54 2.78 3.11 3.12 2.96 2.79 2.49 2.11 1.99 2.08 2.12 1.94 1.97 2.01 1.91 1.99 1.88 1.79 1.74
0.96 1.15 1.26 1.26 1.24 1.28 1.32 1.32 1.42 1.47 1.44 1.44 1.35 1.32 1.29 1.21 1.23 1.13 1.15 1.25 1.26 1.35 1.59 1.81 1.98 2.11 2.50 2.72 2.84 3.01 2.83 2.34 2.05 2.07 2.10 1.90 1.87 2.02 1.90 1.86 1.80 1.63 1.56
1.31 1.48 1.48 1.57 1.62 1.53 1.53 1.49 1.54 1.51 1.45 1.52 1.40 1.29 1.26 1.18 1.30 1.34 1.29 1.35 1.35 1.35 1.69 1.88 1.84 1.67 1.98 2.30 2.55 2.87 3.00 2.72 2.44 2.23 2.23 2.08 1.93 2.09 1.90 1.80 1.79 1.55 1.46
1.60 1.86 1.84 1.93 1.99 1.91 1.87 1.87 2.10 2.03 1.75 1.58 1.68 1.54 1.38 1.26 1.42 1.47 1.42 1.52 1.60 1.71 1.91 1.96 1.78 1.58 1.47 1.66 1.90 2.34 2.92 2.93 2.78 2.48 2.37 2.20 1.97 1.92 1.71 1.68 1.69 1.58 1.43
1.51 1.66 1.95 2.09 2.07 2.18 2.29 2.27 2.65 2.77 2.28 1.86 1.95 2.21 1.97 1.76 1.58 1.45 1.48 1.54 1.67 1.88 1.99 1.89 1.70 1.49 1.34 1.36 1.35 1.75 2.31 2.68 2.76 2.63 2.47 2.22 2.01 1.81 1.71 1.73 1.68 1.71 1.55
1.49 1.60 1.76 1.91 1.95 2.09 2.26 2.37 2.71 3.25 3.00 2.36 2.18 2.59 2.36 2.14 2.03 1.72 1.54 1.53 1.58 1.85 2.13 2.08 1.83 1.61 1.42 1.43 1.35 1.51 1.78 2.04 2.57 2.80 2.69 2.42 2.23 1.93 1.82 1.90 1.71 1.84 1.85
1.37 1.47 1.60 1.73 1.85 1.90 2.07 2.17 2.31 2.87 3.28 2.96 2.67 2.37 2.04 1.99 2.18 2.16 1.81 1.61 1.60 1.73 1.95 1.96 1.83 1.76 1.61 1.47 1.35 1.30 1.53 1.75 2.27 2.71 2.94 2.80 2.55 2.25 2.21 2.35 2.04 1.89 1.88
1.47 1.46 1.60 1.68 1.70 1.78 1.91 2.24 2.51 2.81 3.05 3.06 3.05 2.84 2.54 2.26 1.93 2.19 2.24 1.90 1.77 1.72 1.79 1.83 1.75 1.75 1.74 1.64 1.68 1.46 1.38 1.53 1.79 2.26 2.83 3.15 2.92 2.65 2.69 2.75 2.34 2.14 2.06
1.61 1.62 1.66 1.68 1.66 1.71 1.84 2.07 2.37 2.61 2.93 3.16 3.11 2.92 2.78 2.65 2.41 2.33 2.20 2.04 2.04 1.88 1.76 1.74 1.63 1.62 1.74 1.86 1.81 1.80 1.48 1.32 1.39 1.67 2.07 2.55 2.80 2.83 2.97 2.95 2.66 2.63 2.46
1.53 1.56 1.62 1.74 1.82 1.86 1.99 2.17 2.34 2.27 2.47 2.89 2.92 2.78 2.69 2.51 2.45 2.52 2.46 2.15 2.01 1.73 1.61 1.59 1.51 1.60 1.59 1.63 1.86 2.01 1.58 1.30 1.16 1.40 1.58 1.75 1.99 2.38 2.81 3.01 3.01 3.03 2.90
1.47 1.41 1.44 1.54 1.66 1.85 1.92 1.98 2.03 1.99 2.09 2.35 2.47 2.65 2.74 2.51 2.41 2.33 2.31 2.35 2.12 1.82 1.65 1.52 1.40 1.44 1.45 1.50 1.74 1.87 1.53 1.34 1.03 1.03 1.15 1.35 1.49 1.67 2.02 2.43 2.81 3.00 3.10
1.20 1.12 1.12 1.19 1.27 1.35 1.45 1.61 1.71 1.82 1.86 1.99 2.15 2.28 2.44 2.56 2.49 2.32 2.28 2.27 2.23 2.03 1.81 1.68 1.50 1.32 1.40 1.52 1.77 1.55 1.46 1.43 1.18 1.03 0.97 1.05 1.21 1.28 1.41 1.58 1.83 2.19 2.51
1.13 1.05 1.00 0.98 0.98 0.94 0.98 1.17 1.38 1.51 1.60 1.75 1.94 2.08 2.13 2.19 2.38 2.36 2.21 2.20 2.12 2.01 1.88 1.67 1.56 1.41 1.56 1.50 1.68 1.49 1.51 1.57 1.27 1.13 1.02 0.97 0.99 0.95 0.92 0.99 1.08 1.25 1.62
1.13 1.10 1.00 0.95 1.05 1.04 0.99 1.05 1.12 1.19 1.27 1.41 1.55 1.67 1.82 2.07 2.38 2.42 2.37 2.25 2.16 2.04 1.82 1.65 1.46 1.37 1.66 1.76 1.69 1.56 1.55 1.51 1.28 1.19 1.06 0.95 0.90 0.85 0.80 0.73 0.76 0.86 1.03
0.78 0.87 0.96 0.90 0.89 0.93 0.95 1.01 1.03 1.07 1.12 1.23 1.34 1.46 1.62 1.91 2.25 2.46 2.56 2.45 2.29 2.16 2.03 1.90 1.58 1.33 1.44 1.77 1.89 1.83 1.64 1.49 1.33 1.26 1.09 0.95 0.88 0.81 0.75 0.73 0.73 0.74 0.74
0.62 0.65 0.74 0.74 0.83 0.91 0.95 0.99 0.99 1.03 1.06 1.15 1.30 1.36 1.41 1.59 1.79 1.99 2.18 2.33 2.30 2.27 2.26 2.03 1.74 1.48 1.41 1.54 1.79 1.79 1.72 1.70 1.46 1.39 1.36 1.21 1.06 0.96 0.85 0.77 0.77 0.74 0.69
0.68 0.73 0.83 0.86 0.81 0.80 0.84 0.95 1.00 0.98 0.97 0.99 1.07 1.17 1.25 1.30 1.46 1.60 1.71 1.93 2.15 2.38 2.44 2.28 2.03 1.71 1.58 1.46 1.56 1.72 1.79 1.74 1.65 1.46 1.42 1.30 1.28 1.21 1.09 0.94 0.81 0.74 0.74
0.75 0.76 0.85 0.94 0.99 0.95 0.91 0.98 0.96 0.96 0.97 0.94 0.98 0.98 1.05 1.07 1.14 1.32 1.36 1.59 1.93 2.20 2.30 2.36 2.23 1.92 1.65 1.47 1.26 1.37 1.64 1.86 1.86 1.78 1.76 1.51 1.38 1.23 1.15 1.12 1.04 0.90 0.80
0.64 0.61 0.64 0.70 0.78 0.85 1.09 1.04 0.86 0.80 0.86 0.91 0.95 0.95 0.97 0.92 0.89 0.96 1.08 1.21 1.52 1.73 1.88 1.97 1.98 1.82 1.61 1.48 1.42 1.38 1.46 1.61 1.67 1.55 1.60 1.67 1.59 1.43 1.33 1.21 1.22 1.25 1.15
0.52 0.50 0.49 0.49 0.54 0.72 0.83 0.66 0.64 0.66 0.79 0.90 0.97 1.01 0.98 0.91 0.94 0.95 0.97 0.97 1.04 1.22 1.44 1.66 1.69 1.58 1.64 1.56 1.49 1.38 1.38 1.39 1.38 1.48 1.57 1.64 1.62 1.50 1.42 1.41 1.43 1.33 1.26
0.45 0.44 0.50 0.57 0.58 0.61 0.70 0.57 0.53 0.61 0.81 0.93 0.93 0.89 0.97 0.99 1.01 1.06 1.00 1.05 0.99 0.97 1.07 1.12 1.26 1.47 1.63 1.80 1.78 1.66 1.65 1.58 1.49 1.59 1.62 1.58 1.48 1.39 1.30 1.28 1.34 1.21 1.12
0.53 0.52 0.62 0.69 0.64 0.59 0.64 0.62 0.63 0.75 0.88 0.96 0.92 0.93 1.02 1.06 1.19 1.23 1.13 1.17 1.13 1.09 1.07 1.18 1.28 1.39 1.49 1.61 1.76 1.80 1.75 1.71 1.56 1.48 1.50 1.44 1.33 1.35 1.33 1.21 1.14 1.14 1.04
0.48 0.54 0.57 0.53 0.53 0.62 0.71 0.67 0.74 0.88 1.01 1.11 1.07 1.07 1.27 1.23 1.22 1.16 1.11 1.25 1.21 1.07 1.00 1.04 1.10 1.19 1.23 1.34 1.49 1.54 1.67 1.74 1.64 1.48 1.28 1.25 1.25 1.29 1.34 1.22 1.09 1.02 0.99